Tracking 19242 objects as of 16-Aug-2018
HD Live streaming from Space Station
objects crossing your sky now

WESTFORD NEEDLES

Track WESTFORD NEEDLES now!
10-day predictions
WESTFORD NEEDLES is classified as:


NORAD ID: 2949
Int'l Code: 1963-014AS
Perigee: 1,830.6 km
Apogee: 5,273.7 km
Inclination: 86.0 °
Period: 164.0 minutes
Semi major axis: 9923 km
RCS: 0.2138 m2 (medium)
Launch date: May 9, 1963
Source: United States (US)
Launch site: AIR FORCE WESTERN TEST RANGE (AFWTR)
aabbcc
Your satellite tracking list
Your tracking list is empty




NASA's NSSDC Master Catalog

Two Line Element Set (TLE):
1 02949U 63014AS  18228.21302344  .00005041  00000-0  44224+0 0  9993
2 02949  86.0046 135.8558 1734850 160.0000 333.0979  8.78269320 60869
Source of the keplerian elements: AFSPC